x

Boston 16 Nm East Of Boston, Ma (44013) Wave Buoy

5:50 - Sat 6th Feb 2016 All times are EST. -5 hours from GMT.

  • Sig Wave height 4.6ft
  • Swell Direction
  • Peak Period 8s
  • Average Period 6s
  • Wind
    18mph, 20mph gusts
  • Sea Temp 41°f
  • Ar Temp 30°f
  • Sea Pressure 1026.6mb
  • Boston 16 Nm East Of Boston, Ma
  • Boston 16 Nm East Of Boston, Ma

More Historic Weather Station data

Upgrade to MSW Pro to gain access to the past 30 days of data for over 8000 Wavebouys and Weather Stations around the globe.

Join Pro

Comparision Forecast

View Surf forecast
   
Sáb 02/06 5:50 4.5ft 8s 6s 18 20 mph 1026.6mb 41f 30f
4:50 5.5ft 8s 6s 16 20 mph 1026.4mb 41f 29f
3:50 5.5ft 8s 6s 16 18 mph 1026mb 41f 29f
2:50 6ft 8s 6s 22 27 mph 1024.9mb 42f 29f
1:50 6ft 8s 5s 27 34 mph 1024.1mb 42f 30f
12:50 6.5ft 8s 5s 27 34 mph 1023.5mb 42f 30f
Sex 02/05 11:50 6.5ft 9s 5s 27 34 mph 1023.1mb 42f 29f
10:50 6.5ft 8s 5s 27 34 mph 1022.5mb 42f 29f
9:50 7ft 7s 5s 27 36 mph 1021.6mb 42f 29f
8:50 6.5ft 7s 5s 27 34 mph 1020.4mb 42f 30f
7:50  -   -   -  27 34 mph 1019.2mb 42f 31f
6:50 7ft 8s 5s 25 31 mph 1018.1mb 42f 32f
5:50 7.5ft 8s 5s 29 34 mph 1016.5mb 42f 31f
4:50 7.5ft 8s 5s 31 38 mph 1014.4mb 42f 31f
3:50 7ft 8s 6s 27 31 mph 1013.2mb 42f 32f
2:50 7.5ft 7s 6s 27 29 mph 1012.6mb 42f 32f
1:50 8ft 7s 6s 31 38 mph 1012mb 42f 32f
12:50 7ft 7s 5s 27 34 mph 1013.4mb 42f 33f
11:50 8ft 7s 6s 29 34 mph 1014.3mb 42f 33f
10:50 8ft 7s 6s 31 36 mph 1014.3mb 42f 35f
9:50 6.5ft 6s 5s 31 36 mph 1015.3mb 42f 35f
8:50 6.5ft 6s 5s 27 31 mph 1016.8mb 42f 35f
7:50 6.5ft 6s 5s 29 36 mph 1014.6mb 42f 36f
6:50 5ft 5s 5s 27 31 mph 1015.8mb 42f 37f
5:50 4.5ft 5s 4s 25 29 mph 1015.6mb 42f 38f
4:50 3.5ft 9s 4s 22 27 mph 1016.1mb 42f 39f
3:50 3.5ft 8s 5s 20 25 mph 1016.1mb 42f 40f
2:50 2.5ft 8s 5s 16 18 mph 1017.2mb 42f 42f
1:50 2.5ft 7s 6s 16 18 mph 1017.1mb 42f 42f
12:50 2.5ft 8s 6s 11 13 mph 1017.7mb 42f 42f
Qui 02/04 11:50 2.5ft 7s 6s 7 9 mph 1017.5mb 42f 44f
10:50 2.5ft 8s 6s 9 11 mph 1017.1mb 42f 44f
9:50 2.5ft 8s 6s 4
mph
1017.6mb 42f 44f
8:50 2.5ft 8s 6s 2 4 mph 1018.2mb 42f 45f
7:50 2.5ft 7s 6s 9
mph
1017.7mb 42f 45f
6:50 2.5ft 8s 6s 9 11 mph 1017.1mb 42f 46f
5:50 2.5ft 8s 6s 9
mph
1016.3mb 43f 46f
4:50 2.5ft 8s 6s 7 9 mph 1015.7mb 43f 47f
3:50 2.5ft 8s 6s 7 9 mph 1015.4mb 43f 47f
2:50 2.5ft 7s 6s 7 9 mph 1014.3mb 43f 48f
1:50 2.5ft 7s 6s 7 9 mph 1014mb 43f 44f
12:50 2.5ft 8s 6s 2
mph
1013.9mb 42f 45f
11:50 2.5ft 7s 6s 4
mph
1014.1mb 42f 47f
10:50 2.5ft 8s 6s 13 16 mph 1014.2mb 42f 47f
9:50 2.5ft 8s 5s 9 11 mph 1012.7mb 42f 48f
8:50 2.5ft 8s 5s 9 11 mph 1012mb 42f 47f
7:50 2.5ft 7s 5s 9 11 mph 1011.6mb 42f 47f
6:50 3ft 7s 5s 13 16 mph 1011mb 42f 49f
5:50 3.5ft 7s 5s 9
mph
1011.3mb 42f 48f
4:50 3.5ft 7s 5s 11
mph
1011.7mb 42f 48f
3:50 3.5ft 7s 5s 13 16 mph 1011.6mb 42f 49f
2:50 4ft 7s 5s 11 13 mph 1011.4mb 42f 48f
1:50 4ft 8s 5s 16 18 mph 1011.4mb 42f 50f
12:50 4ft 5s 5s 18 20 mph 1011mb 42f 50f
Qua 02/03 11:50 4ft 5s 4s 18
mph
1010.5mb 42f 49f
10:50 4ft 7s 5s 31 36 mph 1007.8mb 42f 51f
9:50 4.5ft 7s 5s 27 34 mph 1011.7mb 42f 52f
8:50 4.5ft 8s 5s 11 13 mph 1014.7mb 42f 48f
7:50 5.5ft 8s 5s 13 16 mph 1015.5mb 42f 48f
6:50 5.5ft 7s 5s 25 29 mph 1014.6mb 42f 51f
5:50 6.5ft 7s 5s 18 22 mph 1015.3mb 42f 47f
4:50 7ft 7s 5s 25 31 mph 1014.8mb 42f 46f
3:50 6.5ft 7s 5s 27 29 mph 1016mb 42f 47f
2:50 6ft 6s 5s 25 29 mph 1016.6mb 42f 46f
1:50 5ft 6s 5s 27 31 mph 1017.5mb 42f 45f
12:50 5ft 5s 5s 25 29 mph 1019mb 42f 44f
11:50 4.5ft 5s 4s 27 34 mph 1021mb 42f 44f
10:50 4ft 5s 4s 25 29 mph 1023mb 42f 43f
9:50 3ft 4s 4s 22 27 mph 1024.7mb 42f 42f
8:50 2.5ft 3s 4s 22 27 mph 1025.8mb 42f 42f
7:50 2ft 3s 4s 18 20 mph 1026.9mb 42f 42f
6:50 2ft 3s 4s 13 18 mph 1028.3mb 42f 41f
5:50 2ft 3s 4s 16 18 mph 1028.4mb 42f 41f
4:50 2ft 3s 4s 16 18 mph 1028.3mb 42f 41f
3:50 2ft 9s 4s 16 18 mph 1028.1mb 42f 41f
2:50 1.6ft 10s 4s 16 18 mph 1028.3mb 42f 41f
1:50 1.6ft 8s 4s 11 13 mph 1028.6mb 42f 41f
12:50 1.3ft 8s 5s 13 16 mph 1028.4mb 42f 42f
Ter 02/02 11:50 1.3ft 9s 5s 9 11 mph 1029.1mb 42f 42f
10:50 1.3ft 9s 6s 11 13 mph 1029mb 42f 41f
9:50 1.3ft 8s 6s 7 9 mph 1029.4mb 42f 42f
8:50 1.3ft 9s 6s 7
mph
1029.7mb 42f 42f
7:50 1.3ft 10s 6s 9
mph
1029.2mb 42f 42f
6:50 1.3ft 8s 6s 9 11 mph 1028.6mb 42f 42f
5:50 1.3ft 9s 6s 9 11 mph 1027.5mb 43f 42f
4:50 1.3ft 9s 6s 9
mph
1026.5mb 43f 43f
3:50 1.3ft 10s 6s 4
mph
1025.9mb 43f 44f
2:50 1.6ft 9s 6s 4
mph
1025.1mb 43f 44f
1:50 1.6ft 10s 6s 4
mph
1025.7mb 43f 44f
12:50 1.6ft 9s 6s 4 7 mph 1025.9mb 43f 43f
11:50 1.6ft 8s 5s 4
mph
1025.4mb 42f 43f